owner,sensor,date,latitude,longitude,air_temperature,qcFlag 
COMPS,ioos:station:USF.COMPS:SHP:1,2012-09-07T11:00:00Z,30.0600,-84.2910,24.33,1111122 
COMPS,ioos:station:USF.COMPS:SHP:1,2012-09-07T11:06:00Z,30.0600,-84.2910,24.27,1111122 
COMPS,ioos:station:USF.COMPS:SHP:1,2012-09-07T11:12:00Z,30.0600,-84.2910,24.43,1111122 
COMPS,ioos:station:USF.COMPS:SHP:1,2012-09-07T11:18:00Z,30.0600,-84.2910,24.43,1111122 
COMPS,ioos:station:USF.COMPS:SHP:1,2012-09-07T11:24:00Z,30.0600,-84.2910,24.52,1111122 
COMPS,ioos:station:USF.COMPS:SHP:1,2012-09-07T11:30:00Z,30.0600,-84.2910,24.48,1111122 
COMPS,ioos:station:USF.COMPS:SHP:1,2012-09-07T11:36:00Z,30.0600,-84.2910,24.45,1111122 
COMPS,ioos:station:USF.COMPS:SHP:1,2012-09-07T11:42:00Z,30.0600,-84.2910,24.43,1111122 
COMPS,ioos:station:USF.COMPS:SHP:1,2012-09-07T11:48:00Z,30.0600,-84.2910,24.52,1111122 
COMPS,ioos:station:USF.COMPS:SHP:1,2012-09-07T11:54:00Z,30.0600,-84.2910,24.72,1111122 
COMPS,ioos:station:USF.COMPS:SHP:1,2012-09-07T12:00:00Z,30.0600,-84.2910,25.02,1111122 
COMPS,ioos:station:USF.COMPS:SHP:1,2012-09-07T12:06:00Z,30.0600,-84.2910,25.15,1111122 
COMPS,ioos:station:USF.COMPS:SHP:1,2012-09-07T12:12:00Z,30.0600,-84.2910,25.32,1111122 
COMPS,ioos:station:USF.COMPS:SHP:1,2012-09-07T12:18:00Z,30.0600,-84.2910,25.44,1111122 
COMPS,ioos:station:USF.COMPS:SHP:1,2012-09-07T12:24:00Z,30.0600,-84.2910,25.74,1111122 
COMPS,ioos:station:USF.COMPS:SHP:1,2012-09-07T12:30:00Z,30.0600,-84.2910,25.84,1111122 
COMPS,ioos:station:USF.COMPS:SHP:1,2012-09-07T12:36:00Z,30.0600,-84.2910,25.86,1111122 
COMPS,ioos:station:USF.COMPS:SHP:1,2012-09-07T12:42:00Z,30.0600,-84.2910,26.05,1111122 
COMPS,ioos:station:USF.COMPS:SHP:1,2012-09-07T12:48:00Z,30.0600,-84.2910,26.1,1111122 
COMPS,ioos:station:USF.COMPS:SHP:1,2012-09-07T12:54:00Z,30.0600,-84.2910,26.25,1111122 
COMPS,ioos:station:USF.COMPS:SHP:1,2012-09-07T13:00:00Z,30.0600,-84.2910,26.37,1111122 
COMPS,ioos:station:USF.COMPS:SHP:1,2012-09-07T13:06:00Z,30.0600,-84.2910,26.58,1111122 
COMPS,ioos:station:USF.COMPS:SHP:1,2012-09-07T13:12:00Z,30.0600,-84.2910,26.72,1111122 
COMPS,ioos:station:USF.COMPS:SHP:1,2012-09-07T13:18:00Z,30.0600,-84.2910,26.92,1111122 
COMPS,ioos:station:USF.COMPS:SHP:1,2012-09-07T13:24:00Z,30.0600,-84.2910,27.07,1111122 
COMPS,ioos:station:USF.COMPS:SHP:1,2012-09-07T13:30:00Z,30.0600,-84.2910,27.08,1111122 
COMPS,ioos:station:USF.COMPS:SHP:1,2012-09-07T13:36:00Z,30.0600,-84.2910,27.46,1111122 
COMPS,ioos:station:USF.COMPS:SHP:1,2012-09-07T13:42:00Z,30.0600,-84.2910,27.79,1111122 
COMPS,ioos:station:USF.COMPS:SHP:1,2012-09-07T13:48:00Z,30.0600,-84.2910,27.85,1111122 
COMPS,ioos:station:USF.COMPS:SHP:1,2012-09-07T13:54:00Z,30.0600,-84.2910,27.9,1111122 
COMPS,ioos:station:USF.COMPS:SHP:1,2012-09-07T14:00:00Z,30.0600,-84.2910,28.29,1111122 
COMPS,ioos:station:USF.COMPS:SHP:1,2012-09-07T14:06:00Z,30.0600,-84.2910,28.98,1111122 
COMPS,ioos:station:USF.COMPS:SHP:1,2012-09-07T14:12:00Z,30.0600,-84.2910,28.95,1111122 
COMPS,ioos:station:USF.COMPS:SHP:1,2012-09-07T14:18:00Z,30.0600,-84.2910,28.71,1111122 
COMPS,ioos:station:USF.COMPS:SHP:1,2012-09-07T14:24:00Z,30.0600,-84.2910,28.84,1111122 
COMPS,ioos:station:USF.COMPS:SHP:1,2012-09-07T14:30:00Z,30.0600,-84.2910,28.94,1111122 
COMPS,ioos:station:USF.COMPS:SHP:1,2012-09-07T14:36:00Z,30.0600,-84.2910,29.02,1111122 
COMPS,ioos:station:USF.COMPS:SHP:1,2012-09-07T14:42:00Z,30.0600,-84.2910,29.14,1111122 
COMPS,ioos:station:USF.COMPS:SHP:1,2012-09-07T14:48:00Z,30.0600,-84.2910,29.18,1111122 
COMPS,ioos:station:USF.COMPS:SHP:1,2012-09-07T14:54:00Z,30.0600,-84.2910,29.25,1111122 
COMPS,ioos:station:USF.COMPS:SHP:1,2012-09-07T16:00:00Z,30.0600,-84.2910,29.12,1111122 
COMPS,ioos:station:USF.COMPS:SHP:1,2012-09-07T16:06:00Z,30.0600,-84.2910,29.17,1111122 
COMPS,ioos:station:USF.COMPS:SHP:1,2012-09-07T16:12:00Z,30.0600,-84.2910,29.44,1111122 
COMPS,ioos:station:USF.COMPS:SHP:1,2012-09-07T16:18:00Z,30.0600,-84.2910,29.35,1111122 
COMPS,ioos:station:USF.COMPS:SHP:1,2012-09-07T16:24:00Z,30.0600,-84.2910,29.46,1111122 
COMPS,ioos:station:USF.COMPS:SHP:1,2012-09-07T16:30:00Z,30.0600,-84.2910,29.46,1111122 
COMPS,ioos:station:USF.COMPS:SHP:1,2012-09-07T16:36:00Z,30.0600,-84.2910,29.61,1111122 
COMPS,ioos:station:USF.COMPS:SHP:1,2012-09-07T16:42:00Z,30.0600,-84.2910,29.54,1111122 
COMPS,ioos:station:USF.COMPS:SHP:1,2012-09-07T16:48:00Z,30.0600,-84.2910,29.38,1111122 
COMPS,ioos:station:USF.COMPS:SHP:1,2012-09-07T16:54:00Z,30.0600,-84.2910,29.52,1111122 
COMPS,ioos:station:USF.COMPS:SHP:1,2012-09-07T17:00:00Z,30.0600,-84.2910,29.5,1111122 
COMPS,ioos:station:USF.COMPS:SHP:1,2012-09-07T17:06:00Z,30.0600,-84.2910,29.58,1111122 
COMPS,ioos:station:USF.COMPS:SHP:1,2012-09-07T17:12:00Z,30.0600,-84.2910,29.67,1111122 
COMPS,ioos:station:USF.COMPS:SHP:1,2012-09-07T17:18:00Z,30.0600,-84.2910,29.82,1111122 
COMPS,ioos:station:USF.COMPS:SHP:1,2012-09-07T17:24:00Z,30.0600,-84.2910,29.85,1111122 
COMPS,ioos:station:USF.COMPS:SHP:1,2012-09-07T17:30:00Z,30.0600,-84.2910,29.66,1111122 
COMPS,ioos:station:USF.COMPS:SHP:1,2012-09-07T17:36:00Z,30.0600,-84.2910,29.65,1111122 
COMPS,ioos:station:USF.COMPS:SHP:1,2012-09-07T17:42:00Z,30.0600,-84.2910,29.73,1111122 
COMPS,ioos:station:USF.COMPS:SHP:1,2012-09-07T17:48:00Z,30.0600,-84.2910,29.68,1111122 
COMPS,ioos:station:USF.COMPS:SHP:1,2012-09-07T17:54:00Z,30.0600,-84.2910,29.71,1111122 
COMPS,ioos:station:USF.COMPS:SHP:1,2012-09-07T18:00:00Z,30.0600,-84.2910,29.49,1111122 
COMPS,ioos:station:USF.COMPS:SHP:1,2012-09-07T18:06:00Z,30.0600,-84.2910,29.52,1111122 
COMPS,ioos:station:USF.COMPS:SHP:1,2012-09-07T18:12:00Z,30.0600,-84.2910,29.72,1111122 
COMPS,ioos:station:USF.COMPS:SHP:1,2012-09-07T18:18:00Z,30.0600,-84.2910,29.67,1111122 
COMPS,ioos:station:USF.COMPS:SHP:1,2012-09-07T18:24:00Z,30.0600,-84.2910,29.64,1111122 
COMPS,ioos:station:USF.COMPS:SHP:1,2012-09-07T18:30:00Z,30.0600,-84.2910,29.87,1111122 
COMPS,ioos:station:USF.COMPS:SHP:1,2012-09-07T18:36:00Z,30.0600,-84.2910,29.82,1111122 
COMPS,ioos:station:USF.COMPS:SHP:1,2012-09-07T18:42:00Z,30.0600,-84.2910,29.96,1111122 
COMPS,ioos:station:USF.COMPS:SHP:1,2012-09-07T18:48:00Z,30.0600,-84.2910,29.95,1111122 
COMPS,ioos:station:USF.COMPS:SHP:1,2012-09-07T18:54:00Z,30.0600,-84.2910,30.03,1111122 
COMPS,ioos:station:USF.COMPS:SHP:1,2012-09-07T19:00:00Z,30.0600,-84.2910,30.0,1111122 
COMPS,ioos:station:USF.COMPS:SHP:1,2012-09-07T19:06:00Z,30.0600,-84.2910,30.17,1111122 
COMPS,ioos:station:USF.COMPS:SHP:1,2012-09-07T19:12:00Z,30.0600,-84.2910,29.93,1111122 
COMPS,ioos:station:USF.COMPS:SHP:1,2012-09-07T19:18:00Z,30.0600,-84.2910,30.07,1111122 
COMPS,ioos:station:USF.COMPS:SHP:1,2012-09-07T19:24:00Z,30.0600,-84.2910,29.99,1111122 
COMPS,ioos:station:USF.COMPS:SHP:1,2012-09-07T19:30:00Z,30.0600,-84.2910,30.25,1111122 
COMPS,ioos:station:USF.COMPS:SHP:1,2012-09-07T19:36:00Z,30.0600,-84.2910,30.09,1111122 
COMPS,ioos:station:USF.COMPS:SHP:1,2012-09-07T19:42:00Z,30.0600,-84.2910,30.34,1111122 
COMPS,ioos:station:USF.COMPS:SHP:1,2012-09-07T19:48:00Z,30.0600,-84.2910,29.92,1111122 
COMPS,ioos:station:USF.COMPS:SHP:1,2012-09-07T19:54:00Z,30.0600,-84.2910,29.47,1111122 
COMPS,ioos:station:USF.COMPS:SHP:1,2012-09-07T20:00:00Z,30.0600,-84.2910,29.5,1111122 
COMPS,ioos:station:USF.COMPS:SHP:1,2012-09-07T20:06:00Z,30.0600,-84.2910,29.35,1111122 
COMPS,ioos:station:USF.COMPS:SHP:1,2012-09-07T20:12:00Z,30.0600,-84.2910,29.29,1111122 
COMPS,ioos:station:USF.COMPS:SHP:1,2012-09-07T20:18:00Z,30.0600,-84.2910,29.44,1111122 
COMPS,ioos:station:USF.COMPS:SHP:1,2012-09-07T20:24:00Z,30.0600,-84.2910,29.46,1111122 
COMPS,ioos:station:USF.COMPS:SHP:1,2012-09-07T20:30:00Z,30.0600,-84.2910,29.6,1111122 
COMPS,ioos:station:USF.COMPS:SHP:1,2012-09-07T20:36:00Z,30.0600,-84.2910,29.73,1111122 
COMPS,ioos:station:USF.COMPS:SHP:1,2012-09-07T20:42:00Z,30.0600,-84.2910,30.02,1111122 
COMPS,ioos:station:USF.COMPS:SHP:1,2012-09-07T20:48:00Z,30.0600,-84.2910,29.9,1111122 
COMPS,ioos:station:USF.COMPS:SHP:1,2012-09-07T20:54:00Z,30.0600,-84.2910,29.5,1111122 
COMPS,ioos:station:USF.COMPS:SHP:1,2012-09-07T21:00:00Z,30.0600,-84.2910,29.5,1111122 
COMPS,ioos:station:USF.COMPS:SHP:1,2012-09-07T21:06:00Z,30.0600,-84.2910,29.19,1111122 
COMPS,ioos:station:USF.COMPS:SHP:1,2012-09-07T21:12:00Z,30.0600,-84.2910,29.25,1111122 
COMPS,ioos:station:USF.COMPS:SHP:1,2012-09-07T21:18:00Z,30.0600,-84.2910,29.2,1111122 
COMPS,ioos:station:USF.COMPS:SHP:1,2012-09-07T21:24:00Z,30.0600,-84.2910,29.08,1111122 
COMPS,ioos:station:USF.COMPS:SHP:1,2012-09-07T21:30:00Z,30.0600,-84.2910,29.07,1111122 
COMPS,ioos:station:USF.COMPS:SHP:1,2012-09-07T21:36:00Z,30.0600,-84.2910,29.29,1111122 
COMPS,ioos:station:USF.COMPS:SHP:1,2012-09-07T21:42:00Z,30.0600,-84.2910,29.13,1111122 
COMPS,ioos:station:USF.COMPS:SHP:1,2012-09-07T21:48:00Z,30.0600,-84.2910,29.06,1111122 
COMPS,ioos:station:USF.COMPS:SHP:1,2012-09-07T21:54:00Z,30.0600,-84.2910,29.13,1111122 
COMPS,ioos:station:USF.COMPS:SHP:1,2012-09-07T22:00:00Z,30.0600,-84.2910,29.1,1111122 
COMPS,ioos:station:USF.COMPS:SHP:1,2012-09-07T22:06:00Z,30.0600,-84.2910,29.3,1111122 
COMPS,ioos:station:USF.COMPS:SHP:1,2012-09-07T22:12:00Z,30.0600,-84.2910,29.0,1111122 
COMPS,ioos:station:USF.COMPS:SHP:1,2012-09-07T22:18:00Z,30.0600,-84.2910,28.77,1111122 
COMPS,ioos:station:USF.COMPS:SHP:1,2012-09-07T22:24:00Z,30.0600,-84.2910,28.69,1111122 
COMPS,ioos:station:USF.COMPS:SHP:1,2012-09-07T22:30:00Z,30.0600,-84.2910,28.62,1111122 
COMPS,ioos:station:USF.COMPS:SHP:1,2012-09-07T22:36:00Z,30.0600,-84.2910,28.59,1111122 
COMPS,ioos:station:USF.COMPS:SHP:1,2012-09-07T22:42:00Z,30.0600,-84.2910,28.64,1111122 
COMPS,ioos:station:USF.COMPS:SHP:1,2012-09-07T22:48:00Z,30.0600,-84.2910,28.65,1111122 
COMPS,ioos:station:USF.COMPS:SHP:1,2012-09-07T22:54:00Z,30.0600,-84.2910,28.6,1111122 
COMPS,ioos:station:USF.COMPS:SHP:1,2012-09-07T23:00:00Z,30.0600,-84.2910,28.63,1111122 
COMPS,ioos:station:USF.COMPS:SHP:1,2012-09-07T23:06:00Z,30.0600,-84.2910,28.69,1111122 
COMPS,ioos:station:USF.COMPS:SHP:1,2012-09-07T23:12:00Z,30.0600,-84.2910,28.74,1111122 
COMPS,ioos:station:USF.COMPS:SHP:1,2012-09-07T23:18:00Z,30.0600,-84.2910,28.63,1111122 
COMPS,ioos:station:USF.COMPS:SHP:1,2012-09-07T23:24:00Z,30.0600,-84.2910,28.5,1111122 
COMPS,ioos:station:USF.COMPS:SHP:1,2012-09-07T23:30:00Z,30.0600,-84.2910,28.52,1111122 
COMPS,ioos:station:USF.COMPS:SHP:1,2012-09-07T23:36:00Z,30.0600,-84.2910,28.48,1111122 
COMPS,ioos:station:USF.COMPS:SHP:1,2012-09-07T23:42:00Z,30.0600,-84.2910,28.6,1111122 
COMPS,ioos:station:USF.COMPS:SHP:1,2012-09-07T23:48:00Z,30.0600,-84.2910,28.37,1111122 
COMPS,ioos:station:USF.COMPS:SHP:1,2012-09-07T23:54:00Z,30.0600,-84.2910,28.38,1111122 
COMPS,ioos:station:USF.COMPS:SHP:1,2012-09-08T00:00:00Z,30.0600,-84.2910,28.32,1111122 
COMPS,ioos:station:USF.COMPS:SHP:1,2012-09-08T00:06:00Z,30.0600,-84.2910,28.36,1111122 
COMPS,ioos:station:USF.COMPS:SHP:1,2012-09-08T00:12:00Z,30.0600,-84.2910,28.21,1111122 
COMPS,ioos:station:USF.COMPS:SHP:1,2012-09-08T00:18:00Z,30.0600,-84.2910,28.15,1111122 
COMPS,ioos:station:USF.COMPS:SHP:1,2012-09-08T00:24:00Z,30.0600,-84.2910,28.16,1111122 
COMPS,ioos:station:USF.COMPS:SHP:1,2012-09-08T00:30:00Z,30.0600,-84.2910,28.31,1111122 
COMPS,ioos:station:USF.COMPS:SHP:1,2012-09-08T00:36:00Z,30.0600,-84.2910,28.22,1111122 
COMPS,ioos:station:USF.COMPS:SHP:1,2012-09-08T00:42:00Z,30.0600,-84.2910,28.16,1111122 
COMPS,ioos:station:USF.COMPS:SHP:1,2012-09-08T00:48:00Z,30.0600,-84.2910,28.17,1111122 
COMPS,ioos:station:USF.COMPS:SHP:1,2012-09-08T00:54:00Z,30.0600,-84.2910,28.3,1111122 
COMPS,ioos:station:USF.COMPS:SHP:1,2012-09-08T01:00:00Z,30.0600,-84.2910,28.3,1111122 
COMPS,ioos:station:USF.COMPS:SHP:1,2012-09-08T01:06:00Z,30.0600,-84.2910,28.15,1111122 
COMPS,ioos:station:USF.COMPS:SHP:1,2012-09-08T01:12:00Z,30.0600,-84.2910,28.12,1111122 
COMPS,ioos:station:USF.COMPS:SHP:1,2012-09-08T01:18:00Z,30.0600,-84.2910,28.1,1111122 
COMPS,ioos:station:USF.COMPS:SHP:1,2012-09-08T01:24:00Z,30.0600,-84.2910,28.07,1111122 
COMPS,ioos:station:USF.COMPS:SHP:1,2012-09-08T01:30:00Z,30.0600,-84.2910,27.99,1111122 
COMPS,ioos:station:USF.COMPS:SHP:1,2012-09-08T01:36:00Z,30.0600,-84.2910,27.99,1111122 
COMPS,ioos:station:USF.COMPS:SHP:1,2012-09-08T01:42:00Z,30.0600,-84.2910,28.11,1111122 
COMPS,ioos:station:USF.COMPS:SHP:1,2012-09-08T01:48:00Z,30.0600,-84.2910,28.03,1111122 
COMPS,ioos:station:USF.COMPS:SHP:1,2012-09-08T01:54:00Z,30.0600,-84.2910,27.91,1111122 
COMPS,ioos:station:USF.COMPS:SHP:1,2012-09-08T02:00:00Z,30.0600,-84.2910,27.9,1111122 
COMPS,ioos:station:USF.COMPS:SHP:1,2012-09-08T02:06:00Z,30.0600,-84.2910,28.08,1111122 
COMPS,ioos:station:USF.COMPS:SHP:1,2012-09-08T02:12:00Z,30.0600,-84.2910,28.07,1111122 
COMPS,ioos:station:USF.COMPS:SHP:1,2012-09-08T02:18:00Z,30.0600,-84.2910,27.97,1111122 
COMPS,ioos:station:USF.COMPS:SHP:1,2012-09-08T02:24:00Z,30.0600,-84.2910,27.99,1111122 
COMPS,ioos:station:USF.COMPS:SHP:1,2012-09-08T02:30:00Z,30.0600,-84.2910,28.06,1111122 
COMPS,ioos:station:USF.COMPS:SHP:1,2012-09-08T02:36:00Z,30.0600,-84.2910,28.22,1111122 
COMPS,ioos:station:USF.COMPS:SHP:1,2012-09-08T02:42:00Z,30.0600,-84.2910,28.16,1111122 
COMPS,ioos:station:USF.COMPS:SHP:1,2012-09-08T02:48:00Z,30.0600,-84.2910,28.12,1111122 
COMPS,ioos:station:USF.COMPS:SHP:1,2012-09-08T02:54:00Z,30.0600,-84.2910,28.14,1111122 
COMPS,ioos:station:USF.COMPS:SHP:1,2012-09-08T03:00:00Z,30.0600,-84.2910,28.1,1111122 
COMPS,ioos:station:USF.COMPS:SHP:1,2012-09-08T03:06:00Z,30.0600,-84.2910,28.26,1111122 
COMPS,ioos:station:USF.COMPS:SHP:1,2012-09-08T03:12:00Z,30.0600,-84.2910,28.24,1111122 
COMPS,ioos:station:USF.COMPS:SHP:1,2012-09-08T03:18:00Z,30.0600,-84.2910,28.3,1111122 
COMPS,ioos:station:USF.COMPS:SHP:1,2012-09-08T03:24:00Z,30.0600,-84.2910,28.37,1111122 
COMPS,ioos:station:USF.COMPS:SHP:1,2012-09-08T03:30:00Z,30.0600,-84.2910,28.27,1111122 
COMPS,ioos:station:USF.COMPS:SHP:1,2012-09-08T03:36:00Z,30.0600,-84.2910,28.26,1111122 
COMPS,ioos:station:USF.COMPS:SHP:1,2012-09-08T03:42:00Z,30.0600,-84.2910,28.26,1111122 
COMPS,ioos:station:USF.COMPS:SHP:1,2012-09-08T03:48:00Z,30.0600,-84.2910,28.36,1111122 
COMPS,ioos:station:USF.COMPS:SHP:1,2012-09-08T03:54:00Z,30.0600,-84.2910,28.31,1111122 
COMPS,ioos:station:USF.COMPS:SHP:1,2012-09-08T04:00:00Z,30.0600,-84.2910,28.3,1111122 
COMPS,ioos:station:USF.COMPS:SHP:1,2012-09-08T04:06:00Z,30.0600,-84.2910,28.32,1111122 
COMPS,ioos:station:USF.COMPS:SHP:1,2012-09-08T04:12:00Z,30.0600,-84.2910,28.41,1111122 
COMPS,ioos:station:USF.COMPS:SHP:1,2012-09-08T04:18:00Z,30.0600,-84.2910,28.27,1111122 
COMPS,ioos:station:USF.COMPS:SHP:1,2012-09-08T04:24:00Z,30.0600,-84.2910,28.12,1111122 
COMPS,ioos:station:USF.COMPS:SHP:1,2012-09-08T04:30:00Z,30.0600,-84.2910,28.11,1111122 
COMPS,ioos:station:USF.COMPS:SHP:1,2012-09-08T04:36:00Z,30.0600,-84.2910,28.25,1111122 
COMPS,ioos:station:USF.COMPS:SHP:1,2012-09-08T04:42:00Z,30.0600,-84.2910,28.33,1111122 
COMPS,ioos:station:USF.COMPS:SHP:1,2012-09-08T04:48:00Z,30.0600,-84.2910,28.22,1111122 
COMPS,ioos:station:USF.COMPS:SHP:1,2012-09-08T04:54:00Z,30.0600,-84.2910,28.26,1111122 
COMPS,ioos:station:USF.COMPS:SHP:1,2012-09-08T05:00:00Z,30.0600,-84.2910,28.3,1111122 
COMPS,ioos:station:USF.COMPS:SHP:1,2012-09-08T05:06:00Z,30.0600,-84.2910,28.38,1111122 
COMPS,ioos:station:USF.COMPS:SHP:1,2012-09-08T05:12:00Z,30.0600,-84.2910,28.17,1111122 
COMPS,ioos:station:USF.COMPS:SHP:1,2012-09-08T05:18:00Z,30.0600,-84.2910,28.14,1111122 
COMPS,ioos:station:USF.COMPS:SHP:1,2012-09-08T05:24:00Z,30.0600,-84.2910,28.14,1111122 
COMPS,ioos:station:USF.COMPS:SHP:1,2012-09-08T05:30:00Z,30.0600,-84.2910,28.24,1111122 
COMPS,ioos:station:USF.COMPS:SHP:1,2012-09-08T05:36:00Z,30.0600,-84.2910,28.11,1111122 
COMPS,ioos:station:USF.COMPS:SHP:1,2012-09-08T05:42:00Z,30.0600,-84.2910,28.19,1111122 
COMPS,ioos:station:USF.COMPS:SHP:1,2012-09-08T05:48:00Z,30.0600,-84.2910,28.13,1111122 
COMPS,ioos:station:USF.COMPS:SHP:1,2012-09-08T05:54:00Z,30.0600,-84.2910,28.28,1111122 
COMPS,ioos:station:USF.COMPS:SHP:1,2012-09-08T06:00:00Z,30.0600,-84.2910,28.3,1111122 
COMPS,ioos:station:USF.COMPS:SHP:1,2012-09-08T06:06:00Z,30.0600,-84.2910,28.22,1111122 
COMPS,ioos:station:USF.COMPS:SHP:1,2012-09-08T06:12:00Z,30.0600,-84.2910,28.21,1111122 
COMPS,ioos:station:USF.COMPS:SHP:1,2012-09-08T06:18:00Z,30.0600,-84.2910,28.36,1111122 
COMPS,ioos:station:USF.COMPS:SHP:1,2012-09-08T06:24:00Z,30.0600,-84.2910,28.27,1111122 
COMPS,ioos:station:USF.COMPS:SHP:1,2012-09-08T06:30:00Z,30.0600,-84.2910,28.23,1111122 
COMPS,ioos:station:USF.COMPS:SHP:1,2012-09-08T06:36:00Z,30.0600,-84.2910,28.18,1111122 
COMPS,ioos:station:USF.COMPS:SHP:1,2012-09-08T06:42:00Z,30.0600,-84.2910,28.33,1111122 
COMPS,ioos:station:USF.COMPS:SHP:1,2012-09-08T06:48:00Z,30.0600,-84.2910,28.27,1111122 
COMPS,ioos:station:USF.COMPS:SHP:1,2012-09-08T06:54:00Z,30.0600,-84.2910,28.2,1111122 
COMPS,ioos:station:USF.COMPS:SHP:1,2012-09-08T07:00:00Z,30.0600,-84.2910,28.2,1111122 
COMPS,ioos:station:USF.COMPS:SHP:1,2012-09-08T07:06:00Z,30.0600,-84.2910,28.24,1111122 
COMPS,ioos:station:USF.COMPS:SHP:1,2012-09-08T07:12:00Z,30.0600,-84.2910,28.29,1111122 
COMPS,ioos:station:USF.COMPS:SHP:1,2012-09-08T07:18:00Z,30.0600,-84.2910,28.15,1111122 
COMPS,ioos:station:USF.COMPS:SHP:1,2012-09-08T07:24:00Z,30.0600,-84.2910,28.13,1111122 
COMPS,ioos:station:USF.COMPS:SHP:1,2012-09-08T07:30:00Z,30.0600,-84.2910,28.2,1111122 
COMPS,ioos:station:USF.COMPS:SHP:1,2012-09-08T07:36:00Z,30.0600,-84.2910,28.21,1111122 
COMPS,ioos:station:USF.COMPS:SHP:1,2012-09-08T07:42:00Z,30.0600,-84.2910,28.17,1111122 
COMPS,ioos:station:USF.COMPS:SHP:1,2012-09-08T07:48:00Z,30.0600,-84.2910,28.11,1111122 
COMPS,ioos:station:USF.COMPS:SHP:1,2012-09-08T07:54:00Z,30.0600,-84.2910,28.18,1111122 
COMPS,ioos:station:USF.COMPS:SHP:1,2012-09-08T08:00:00Z,30.0600,-84.2910,28.2,1111122 
COMPS,ioos:station:USF.COMPS:SHP:1,2012-09-08T08:06:00Z,30.0600,-84.2910,28.15,1111122 
COMPS,ioos:station:USF.COMPS:SHP:1,2012-09-08T08:12:00Z,30.0600,-84.2910,28.14,1111122 
COMPS,ioos:station:USF.COMPS:SHP:1,2012-09-08T08:18:00Z,30.0600,-84.2910,28.1,1111122 
COMPS,ioos:station:USF.COMPS:SHP:1,2012-09-08T08:24:00Z,30.0600,-84.2910,28.33,1111122 
COMPS,ioos:station:USF.COMPS:SHP:1,2012-09-08T08:30:00Z,30.0600,-84.2910,28.12,1111122 
COMPS,ioos:station:USF.COMPS:SHP:1,2012-09-08T08:36:00Z,30.0600,-84.2910,28.12,1111122 
COMPS,ioos:station:USF.COMPS:SHP:1,2012-09-08T08:42:00Z,30.0600,-84.2910,28.15,1111122 
COMPS,ioos:station:USF.COMPS:SHP:1,2012-09-08T08:48:00Z,30.0600,-84.2910,28.33,1111122 
COMPS,ioos:station:USF.COMPS:SHP:1,2012-09-08T08:54:00Z,30.0600,-84.2910,28.2,1111122 
COMPS,ioos:station:USF.COMPS:SHP:1,2012-09-08T09:00:00Z,30.0600,-84.2910,28.2,1111122 
COMPS,ioos:station:USF.COMPS:SHP:1,2012-09-08T09:06:00Z,30.0600,-84.2910,28.29,1111122 
COMPS,ioos:station:USF.COMPS:SHP:1,2012-09-08T09:12:00Z,30.0600,-84.2910,28.45,1111122 
COMPS,ioos:station:USF.COMPS:SHP:1,2012-09-08T09:18:00Z,30.0600,-84.2910,28.38,1111122 
COMPS,ioos:station:USF.COMPS:SHP:1,2012-09-08T09:24:00Z,30.0600,-84.2910,28.28,1111122 
COMPS,ioos:station:USF.COMPS:SHP:1,2012-09-08T09:30:00Z,30.0600,-84.2910,28.28,1111122 
COMPS,ioos:station:USF.COMPS:SHP:1,2012-09-08T09:36:00Z,30.0600,-84.2910,28.38,1111122 
COMPS,ioos:station:USF.COMPS:SHP:1,2012-09-08T09:42:00Z,30.0600,-84.2910,28.37,1111122 
COMPS,ioos:station:USF.COMPS:SHP:1,2012-09-08T09:48:00Z,30.0600,-84.2910,28.25,1111122 
COMPS,ioos:station:USF.COMPS:SHP:1,2012-09-08T09:54:00Z,30.0600,-84.2910,28.26,1111122 
COMPS,ioos:station:USF.COMPS:SHP:1,2012-09-08T10:00:00Z,30.0600,-84.2910,28.18,1111122 
COMPS,ioos:station:USF.COMPS:SHP:1,2012-09-08T10:06:00Z,30.0600,-84.2910,28.11,1111122 
COMPS,ioos:station:USF.COMPS:SHP:1,2012-09-08T10:12:00Z,30.0600,-84.2910,27.45,1111122 
COMPS,ioos:station:USF.COMPS:SHP:1,2012-09-08T10:18:00Z,30.0600,-84.2910,27.75,1111122 
COMPS,ioos:station:USF.COMPS:SHP:1,2012-09-08T10:24:00Z,30.0600,-84.2910,26.82,1111122 
COMPS,ioos:station:USF.COMPS:SHP:1,2012-09-08T10:30:00Z,30.0600,-84.2910,26.65,1111122 
COMPS,ioos:station:USF.COMPS:SHP:1,2012-09-08T10:36:00Z,30.0600,-84.2910,26.92,1111122 
COMPS,ioos:station:USF.COMPS:SHP:1,2012-09-08T10:42:00Z,30.0600,-84.2910,27.54,1111122 
COMPS,ioos:station:USF.COMPS:SHP:1,2012-09-08T10:48:00Z,30.0600,-84.2910,27.53,1111122 
COMPS,ioos:station:USF.COMPS:SHP:1,2012-09-08T10:54:00Z,30.0600,-84.2910,27.84,1111122 
COMPS,ioos:station:USF.COMPS:SHP:1,2012-09-08T11:00:00Z,30.0600,-84.2910,27.8,1111122 
COMPS,ioos:station:USF.COMPS:SHP:1,2012-09-08T11:06:00Z,30.0600,-84.2910,28.11,1111122 
COMPS,ioos:station:USF.COMPS:SHP:1,2012-09-08T11:12:00Z,30.0600,-84.2910,28.15,1111122 
COMPS,ioos:station:USF.COMPS:SHP:1,2012-09-08T11:18:00Z,30.0600,-84.2910,28.32,1111122 
COMPS,ioos:station:USF.COMPS:SHP:1,2012-09-08T11:24:00Z,30.0600,-84.2910,28.28,1111122 
COMPS,ioos:station:USF.COMPS:SHP:1,2012-09-08T11:30:00Z,30.0600,-84.2910,28.25,1111122 
COMPS,ioos:station:USF.COMPS:SHP:1,2012-09-08T11:36:00Z,30.0600,-84.2910,28.27,1111122 
COMPS,ioos:station:USF.COMPS:SHP:1,2012-09-08T11:42:00Z,30.0600,-84.2910,28.48,1111122 
COMPS,ioos:station:USF.COMPS:SHP:1,2012-09-08T11:48:00Z,30.0600,-84.2910,28.34,1111122 
COMPS,ioos:station:USF.COMPS:SHP:1,2012-09-08T11:54:00Z,30.0600,-84.2910,28.35,1111122 
COMPS,ioos:station:USF.COMPS:SHP:1,2012-09-08T12:00:00Z,30.0600,-84.2910,28.36,1111122 
COMPS,ioos:station:USF.COMPS:SHP:1,2012-09-08T12:06:00Z,30.0600,-84.2910,28.4,1111122 
COMPS,ioos:station:USF.COMPS:SHP:1,2012-09-08T12:12:00Z,30.0600,-84.2910,28.46,1111122 
COMPS,ioos:station:USF.COMPS:SHP:1,2012-09-08T12:18:00Z,30.0600,-84.2910,28.38,1111122 
COMPS,ioos:station:USF.COMPS:SHP:1,2012-09-08T12:24:00Z,30.0600,-84.2910,28.38,1111122 
COMPS,ioos:station:USF.COMPS:SHP:1,2012-09-08T12:30:00Z,30.0600,-84.2910,28.5,1111122 
COMPS,ioos:station:USF.COMPS:SHP:1,2012-09-08T12:36:00Z,30.0600,-84.2910,28.51,1111122 
COMPS,ioos:station:USF.COMPS:SHP:1,2012-09-08T12:42:00Z,30.0600,-84.2910,28.44,1111122 
COMPS,ioos:station:USF.COMPS:SHP:1,2012-09-08T12:48:00Z,30.0600,-84.2910,28.4,1111122 
COMPS,ioos:station:USF.COMPS:SHP:1,2012-09-08T12:54:00Z,30.0600,-84.2910,28.51,1111122 
COMPS,ioos:station:USF.COMPS:SHP:1,2012-09-08T13:00:00Z,30.0600,-84.2910,28.65,1111122 
COMPS,ioos:station:USF.COMPS:SHP:1,2012-09-08T13:06:00Z,30.0600,-84.2910,28.46,1111122 
COMPS,ioos:station:USF.COMPS:SHP:1,2012-09-08T13:12:00Z,30.0600,-84.2910,28.44,1111122 
COMPS,ioos:station:USF.COMPS:SHP:1,2012-09-08T13:18:00Z,30.0600,-84.2910,28.61,1111122 
COMPS,ioos:station:USF.COMPS:SHP:1,2012-09-08T13:24:00Z,30.0600,-84.2910,28.75,1111122 
COMPS,ioos:station:USF.COMPS:SHP:1,2012-09-08T13:30:00Z,30.0600,-84.2910,28.52,1111122 
COMPS,ioos:station:USF.COMPS:SHP:1,2012-09-08T13:36:00Z,30.0600,-84.2910,28.29,1111122 
COMPS,ioos:station:USF.COMPS:SHP:1,2012-09-08T13:42:00Z,30.0600,-84.2910,26.54,1111122 
COMPS,ioos:station:USF.COMPS:SHP:1,2012-09-08T13:48:00Z,30.0600,-84.2910,27.37,1111122 
COMPS,ioos:station:USF.COMPS:SHP:1,2012-09-08T13:54:00Z,30.0600,-84.2910,27.61,1111122 
COMPS,ioos:station:USF.COMPS:SHP:1,2012-09-08T14:00:00Z,30.0600,-84.2910,27.6,1111122 
COMPS,ioos:station:USF.COMPS:SHP:1,2012-09-08T14:06:00Z,30.0600,-84.2910,27.98,1111122 
COMPS,ioos:station:USF.COMPS:SHP:1,2012-09-08T14:12:00Z,30.0600,-84.2910,28.2,1111122 
COMPS,ioos:station:USF.COMPS:SHP:1,2012-09-08T14:18:00Z,30.0600,-84.2910,28.32,1111122 
COMPS,ioos:station:USF.COMPS:SHP:1,2012-09-08T14:24:00Z,30.0600,-84.2910,28.41,1111122 
COMPS,ioos:station:USF.COMPS:SHP:1,2012-09-08T14:30:00Z,30.0600,-84.2910,28.38,1111122 
COMPS,ioos:station:USF.COMPS:SHP:1,2012-09-08T14:36:00Z,30.0600,-84.2910,28.49,1111122 
COMPS,ioos:station:USF.COMPS:SHP:1,2012-09-08T14:42:00Z,30.0600,-84.2910,28.74,1111122 
COMPS,ioos:station:USF.COMPS:SHP:1,2012-09-08T14:48:00Z,30.0600,-84.2910,28.7,1111122 
COMPS,ioos:station:USF.COMPS:SHP:1,2012-09-08T14:54:00Z,30.0600,-84.2910,28.73,1111122 
COMPS,ioos:station:USF.COMPS:SHP:1,2012-09-08T15:00:00Z,30.0600,-84.2910,28.7,1111122 
COMPS,ioos:station:USF.COMPS:SHP:1,2012-09-08T15:06:00Z,30.0600,-84.2910,26.54,1111122 